Flag for Norway Weather past 2 weeks in Kolbotn, Norway

Now
57 °F

Fog.


Feels Like: 54 °F
Forecast: 64 / 83 °F
Wind: 15 mph from Northeast

Location: Oslo / Fornebu

Current Time: Jul 25, 2014 at 6:08:02 AM

Latest Report: Jul 25, 2014 at 5:20 AM


Visibility: 0 mi

Pressure: 30.21 "Hg

Humidity: 100%

Dew point: 57 °F

Location of KolbotnLocation

Historic Weather in Kolbotn — Graph

°F

Kolbotn temperature yesterday

Maximum temperature yesterday: 59 °F (at 12:20 AM)
Minimum temperature yesterday: 57 °F (at 3:20 AM)
Average temperature yesterday: 58 °F

Past Weeks' High & Low Weather Summary

 TemperatureHumidityPressure
High75 °F (Jul 20, 2:20 PM)100% (Jul 10, 4:20 AM)30.39 "Hg (Jul 10, 4:20 AM)
Low52 °F (Jul 10, 4:50 AM)47% (Jul 21, 12:20 AM)29.65 "Hg (Jul 15, 9:20 AM)
Average60 °F87%30.04 "Hg
* Reported Jul 10 4:20 AM — Jul 25 4:50 AM, Kolbotn, Weather by CustomWeather, © 2014

Note: Actual official high and low records may vary slightly from our data, if they occured in-between our weather recording intervals... More about our weather records

Advertising

Kolbotn weather history for previous 24 hours

 ConditionsComfort  
Time TempWeatherWind HumidityBarometerVisibility
4:50 AM
Jul 25
57 °FFog.14 mph100%30.24 "Hg0 mi
4:20 AM57 °FFog.13 mph100%30.21 "Hg0 mi
3:50 AM57 °FFog.13 mph100%30.24 "Hg0 mi
3:20 AM57 °FFog.10 mph100%30.24 "Hg0 mi
2:50 AM57 °FFog.13 mph100%30.24 "Hg0 mi
2:20 AM57 °FFog.14 mph100%30.24 "Hg0 mi
1:50 AM57 °FFog.14 mph100%30.24 "Hg0 mi
1:20 AM57 °FFog.13 mph100%30.24 "Hg0 mi
12:50 AM57 °FFog.12 mph100%30.24 "Hg0 mi
12:20 AM57 °FFog.12 mph100%30.24 "Hg0 mi
11:50 PM
Jul 24
57 °FFog.12 mph100%30.24 "Hg0 mi
11:20 PM57 °FFog.12 mph100%30.24 "Hg0 mi
10:50 PM57 °FFog.12 mph100%30.24 "Hg0 mi
10:20 PM57 °FFog.12 mph100%30.24 "Hg0 mi
9:50 PM57 °FFog.13 mph100%30.24 "Hg0 mi
9:20 PM57 °FFog.10 mph100%30.24 "Hg0 mi
8:50 PM57 °FFog.10 mph100%30.24 "Hg0 mi
8:20 PM57 °FFog.12 mph100%30.24 "Hg0 mi
7:50 PM57 °FFog.12 mph100%30.24 "Hg0 mi
7:20 PM57 °FFog.10 mph100%30.24 "Hg0 mi
6:50 PM57 °FFog.9 mph100%30.24 "Hg0 mi
6:20 PM57 °FFog.9 mph100%30.24 "Hg0 mi
5:50 PM57 °FFog.8 mph100%30.27 "Hg0 mi
5:20 PM57 °FFog.7 mph100%30.27 "Hg0 mi
4:50 PM57 °FFog.6 mph100%30.27 "Hg0 mi
4:20 PM59 °FFog.3 mph100%30.27 "Hg0 mi
3:50 PM59 °FFog.3 mph100%30.27 "Hg0 mi
3:20 PM59 °FFog.5 mph100%30.27 "Hg0 mi
2:50 PM59 °FFog.6 mph100%30.27 "Hg0 mi
2:20 PM59 °FFog.7 mph100%30.27 "Hg1 mi
1:50 PM59 °FFog.6 mph100%30.30 "Hg2 mi
1:20 PM59 °FPartly sunny.8 mph100%30.30 "Hg4 mi
12:50 PM59 °FPartly sunny.8 mph100%30.30 "HgN/A
12:20 PM59 °FPartly sunny.9 mph100%30.30 "HgN/A
11:50 AM59 °FPartly sunny.9 mph100%30.30 "HgN/A
11:20 AM57 °FFog.9 mph100%30.30 "Hg2 mi
10:50 AM57 °FFog.10 mph100%30.27 "Hg0 mi
10:20 AM57 °FFog.10 mph100%30.27 "Hg0 mi
9:50 AM57 °FFog.10 mph100%30.27 "Hg0 mi
9:20 AM57 °FFog.9 mph100%30.27 "Hg0 mi
8:50 AM57 °FFog.10 mph100%30.27 "Hg0 mi
8:20 AM57 °FFog.8 mph100%30.27 "Hg0 mi
7:50 AM57 °FFog.9 mph100%30.27 "Hg0 mi
7:20 AM57 °FFog.9 mph100%30.30 "Hg0 mi
6:50 AM57 °FFog.9 mph100%30.30 "Hg0 mi
6:20 AM57 °FFog.9 mph100%30.30 "Hg0 mi
Weather by CustomWeather, © 2014

See weather overviewHow to use our weather pages